User: anonymous   Login
Location: Unspecified
(0.0000°N, 0.0000°E)
Time: 10:25:08
(UTC+02:00)
Language:

Delta 2 Rocket - Orbit

View from above orbital plane
View from above orbital plane
View from above satellite
View from above satellite

Ground track
Ground track

The orbit data is extracted from the following two-line orbital elements,

1 20453U 90008B   16236.26662134  .00000774  00000-0  47231-4 0  9998
2 20453  35.6256 179.2651 0294220 212.4354 145.7966 14.81998042403960
Epoch (UTC): 23 August 2016 06:23:56
Eccentricity: 0.0294220
inclination: 35.6256°
perigee height: 417 km
apogee height: 829 km
right ascension of ascending node: 179.2651°
argument of perigee: 212.4354°
revolutions per day: 14.81998042
mean anomaly at epoch: 145.7966°
orbit number at epoch: 40396

The dashed part of the orbit path shows where the satellite is in the earth's shadow,  

DLR